Zurück zum Katalog

STARLINK-31454

AktivKommunikationVLEO
NORAD 59014·PAYLOAD·🇺🇸 United States

Gestartet Feb 23, 2024 von Vandenberg Space Force Base

Loading…

Nächste Überflüge (nächste 24 Stunden)

TLE

AktuellSource: CelesTrak SupGP

Epoche: Sep 14, 2026, 14:33 UTC

1 59014C 24036S   26257.60673611  .00005177  00000+0  16653-3 0  2576
2 59014  53.1560 280.3499 0001123  78.4780 193.9126 15.31689440    10

Verfolge STARLINK-31454 in Echtzeit mit AllMySat

Download on the App Store